Terug naar catalogus

STARLINK-31412

ActiefCommunicatieVLEO
NORAD 59410·PAYLOAD·🇺🇸 United States

Gelanceerd Apr 5, 2024 vanaf Cape Canaveral Space Force Station

Loading…

Volgende Passages (komende 24 uur)

TLE

VersSource: CelesTrak SupGP

Epoch: Sep 15, 2026, 02:33 UTC

1 59410C 24064N   26258.10673611 -.00015330  00000+0 -55515-3 0  2588
2 59410  43.0002  66.4101 0001355 272.6208 137.6215 15.27592764    13

Volg STARLINK-31412 in realtime met AllMySat

Download on the App Store